Weather History for KLWS - November, 2011

Change the Weather History Date:

Sunday, November 13, 2011

  Actual Average Record
Temperature  
Mean Temperature 46 °F 42 °F  
Max Temperature 54 °F 49 °F 74 °F (1999)
Min Temperature 37 °F 35 °F 8 °F (1959)
Degree Days  
Heating Degree Days 19 23  
Month to date heating degree days 317 273  
Since 1 July heating degree days 707 798  
Cooling Degree Days 0 0  
Month to date cooling degree days 0 0  
Year to date cooling degree days 742 807  
Moisture  
Dew Point 32 °F    
Average Humidity 63    
Maximum Humidity 85    
Minimum Humidity 41    
Precipitation  
Precipitation T in 0.04 in 1.10 in (1906)
Month to date precipitation 0.49 0.53  
Year to date precipitation 12.40 10.69  
Snow  
Snow 0.00 in 0.00 in 2.40 in (1955)
Month to date snowfall 0.0 0.4  
Since 1 July snowfall 0.0 0.4  
Since 1 September snowfall 0.0 0.4  
Snow Depth 0.00 in    
Sea Level Pressure  
Sea Level Pressure 29.69 in    
Wind  
Wind Speed 9 mph (SW)    
Max Wind Speed 26 mph    
Max Gust Speed 32 mph    
Visibility 10 miles    
Events      
T = Trace of Precipitation, MM = Missing Value Source: NWS Daily Summary

Daily Weather History Graph

Daily Weather History Graph

Search for Another Location

Airport or City:

Trip Planner

Search our weather history database for the weather conditions in past years. The results will help you decide how hot, cold, wet, or windy it might be!

Date:

Astronomy

Nov. 13, 2011 Rise Set
Actual Time 6:46 AM PST 4:17 PM PST
Civil Twilight 6:13 AM PST 4:50 PM PST
Nautical Twilight 5:37 AM PST 5:26 PM PST
Astronomical Twilight 5:02 AM PST 6:01 PM PST
Moon 6:24 PM PST (11/13) 9:29 AM PST (11/13)
Length of Visible Light 10h 36m
Length of Day
9h 31m
Waning Gibbous, 92% of the Moon is Illuminated
Nov 13
Waning Gibbous
Nov 18
Last Quarter
Nov 24
New
Dec 2
First Quarter
Dec 10
Full

Hourly Weather History & Observations

Time (PST) Temp. Windchill Dew Point Humidity Pressure Visibility Wind Dir Wind Speed Gust Speed Precip Events Conditions
12:56 AM 41.0 °F 36.4 °F 36.0 °F 82% 29.60 in 10.0 mi SSW 6.9 mph - 0.01 in   Overcast
1:56 AM 39.0 °F 36.8 °F 35.1 °F 86% 29.59 in 10.0 mi South 3.5 mph - N/A   Mostly Cloudy
2:56 AM 39.9 °F - 35.1 °F 83% 29.58 in 10.0 mi Calm Calm - N/A   Overcast
3:56 AM 43.0 °F - 35.1 °F 74% 29.58 in 10.0 mi North - - N/A   Overcast
4:56 AM 44.6 °F 40.2 °F 35.6 °F 71% 29.58 in 10.0 mi West 8.1 mph - N/A   Mostly Cloudy
5:56 AM 46.0 °F 40.6 °F 33.1 °F 61% 29.63 in 10.0 mi West 11.5 mph - N/A   Mostly Cloudy
6:56 AM 46.0 °F 42.5 °F 33.1 °F 61% 29.66 in 10.0 mi West 6.9 mph - N/A   Overcast
7:56 AM 45.0 °F - 34.0 °F 65% 29.68 in 10.0 mi Calm Calm - N/A   Overcast
8:56 AM 48.9 °F - 33.1 °F 54% 29.70 in 10.0 mi West 9.2 mph - N/A   Scattered Clouds
9:56 AM 48.9 °F - 32.0 °F 52% 29.73 in 10.0 mi West 12.7 mph 19.6 mph N/A   Mostly Cloudy
10:56 AM 51.1 °F - 28.9 °F 43% 29.73 in 10.0 mi West 19.6 mph 29.9 mph N/A   Unknown
11:56 AM 54.0 °F - 30.0 °F 40% 29.71 in 10.0 mi WSW 16.1 mph - N/A   Clear
12:56 PM 52.0 °F - 28.9 °F 41% 29.72 in 10.0 mi WSW 23.0 mph 32.2 mph N/A   Unknown
1:56 PM 51.1 °F - 28.9 °F 43% 29.73 in 10.0 mi WSW 17.3 mph 25.3 mph N/A   Mostly Cloudy
2:56 PM 51.1 °F - 28.0 °F 41% 29.74 in 10.0 mi WSW 15.0 mph 23.0 mph N/A   Overcast
3:56 PM 48.9 °F - 28.9 °F 46% 29.74 in 10.0 mi WSW 10.4 mph - N/A   Overcast
4:56 PM 46.0 °F 41.4 °F 30.9 °F 56% 29.74 in 10.0 mi SSW 9.2 mph - N/A   Scattered Clouds
5:56 PM 46.0 °F 41.4 °F 30.9 °F 56% 29.73 in 10.0 mi SSW 9.2 mph - N/A   Clear
6:56 PM 48.0 °F - 30.0 °F 50% 29.73 in 10.0 mi SW 4.6 mph - N/A   Clear
7:56 PM 42.1 °F 37.1 °F 30.0 °F 62% 29.74 in 10.0 mi SSE 8.1 mph - N/A   Clear
8:56 PM 44.1 °F 40.1 °F 30.9 °F 60% 29.74 in 10.0 mi South 6.9 mph - N/A   Partly Cloudy
9:56 PM 46.0 °F 44.8 °F 30.9 °F 56% 29.74 in 10.0 mi South 3.5 mph - N/A   Overcast
10:56 PM 45.0 °F - 30.9 °F 58% 29.73 in 10.0 mi Calm Calm - N/A   Mostly Cloudy
11:56 PM 41.0 °F 37.1 °F 30.9 °F 67% 29.73 in 10.0 mi SSE 5.8 mph - N/A   Partly Cloudy